Time,TemperatureF,DewpointF,PressureIn,WindDirection,WindDirectionDegrees,WindSpeedMPH,WindSpeedGustMPH,Humidity,HourlyPrecipIn,Conditions,Clouds,dailyrainin,SoftwareType,DateUTC
2014-01-05 00:01:00,43.8,38.7,30.23,ESE,119,0.0,0.0,82,0.00,CLR,,0.00,WeatherDisplay:10.37,2014-01-05 05:01:00,
2014-01-05 00:02:00,43.8,38.7,30.22,ESE,119,0.0,0.0,82,0.00,CLR,,0.00,WeatherDisplay:10.37,2014-01-05 05:02:00,
2014-01-05 00:04:00,43.9,38.8,30.22,ESE,119,0.0,0.0,82,0.00,CLR,,0.00,WeatherDisplay:10.37,2014-01-05 05:04:00,
2014-01-05 00:07:00,43.9,38.8,30.21,ESE,119,0.0,0.0,82,0.00,CLR,,0.00,WeatherDisplay:10.37,2014-01-05 05:07:00,
2014-01-05 00:12:00,43.9,38.8,30.21,ESE,119,0.0,0.0,82,0.00,CLR,,0.00,WeatherDisplay:10.37,2014-01-05 05:12:00,
2014-01-05 00:17:00,44.0,38.9,30.20,ESE,119,0.0,0.0,82,0.00,CLR,,0.00,WeatherDisplay:10.37,2014-01-05 05:17:00,
2014-01-05 00:22:00,44.0,38.9,30.20,ESE,119,0.0,0.0,82,0.00,CLR,,0.00,WeatherDisplay:10.37,2014-01-05 05:22:00,
2014-01-05 00:27:00,44.0,38.9,30.19,ESE,119,0.0,0.0,82,0.00,CLR,,0.00,WeatherDisplay:10.37,2014-01-05 05:27:00,
2014-01-05 00:32:00,44.0,38.9,30.19,ESE,119,0.0,0.0,82,0.00,CLR,,0.00,WeatherDisplay:10.37,2014-01-05 05:32:00,
2014-01-05 00:37:00,44.0,38.9,30.19,ESE,119,0.0,0.0,82,0.00,CLR,,0.00,WeatherDisplay:10.37,2014-01-05 05:37:00,
2014-01-05 00:42:00,44.1,39.0,30.19,ESE,119,0.0,0.0,82,0.00,CLR,,0.00,WeatherDisplay:10.37,2014-01-05 05:42:00,
2014-01-05 00:47:00,44.1,39.0,30.19,ESE,119,0.0,0.0,82,0.00,CLR,,0.00,WeatherDisplay:10.37,2014-01-05 05:47:00,
2014-01-05 00:52:00,44.1,39.0,30.19,ESE,119,0.0,0.0,82,0.00,CLR,,0.00,WeatherDisplay:10.37,2014-01-05 05:52:00,
2014-01-05 00:57:00,44.1,39.0,30.18,ESE,119,0.0,0.0,82,0.00,CLR,,0.00,WeatherDisplay:10.37,2014-01-05 05:57:00,
2014-01-05 01:02:00,44.1,39.3,30.18,ESE,119,0.0,0.0,83,0.00,CLR,,0.00,WeatherDisplay:10.37,2014-01-05 06:02:00,
2014-01-05 01:07:00,44.1,39.3,30.19,ESE,119,0.0,0.0,83,0.00,CLR,,0.00,WeatherDisplay:10.37,2014-01-05 06:07:00,
2014-01-05 01:12:00,44.0,39.2,30.19,ESE,119,0.0,0.0,83,0.00,CLR,,0.00,WeatherDisplay:10.37,2014-01-05 06:12:00,
2014-01-05 01:17:00,44.0,39.2,30.19,ESE,119,0.0,0.0,83,0.00,CLR,,0.00,WeatherDisplay:10.37,2014-01-05 06:17:00,
2014-01-05 01:22:00,44.0,39.2,30.19,ESE,119,0.0,0.0,83,0.00,CLR,,0.00,WeatherDisplay:10.37,2014-01-05 06:22:00,
2014-01-05 01:27:00,44.0,39.2,30.20,ESE,119,0.0,0.0,83,0.00,CLR,,0.00,WeatherDisplay:10.37,2014-01-05 06:27:00,
2014-01-05 01:32:00,44.0,39.2,30.20,ESE,119,0.0,0.0,83,0.00,CLR,,0.00,WeatherDisplay:10.37,2014-01-05 06:32:00,
2014-01-05 01:37:00,44.1,39.3,30.19,ESE,119,0.0,0.0,83,0.00,CLR,,0.00,WeatherDisplay:10.37,2014-01-05 06:37:00,
2014-01-05 01:42:00,44.1,39.3,30.19,ESE,119,0.0,0.0,83,0.00,CLR,,0.00,WeatherDisplay:10.37,2014-01-05 06:42:00,
2014-01-05 01:47:00,44.1,39.3,30.19,ESE,119,0.0,0.0,83,0.00,CLR,,0.00,WeatherDisplay:10.37,2014-01-05 06:47:00,
2014-01-05 01:52:00,44.2,39.7,30.19,ESE,119,0.0,0.0,84,0.00,CLR,,0.00,WeatherDisplay:10.37,2014-01-05 06:52:00,
2014-01-05 01:57:00,44.2,39.4,30.19,ESE,119,0.0,0.0,83,0.00,CLR,,0.00,WeatherDisplay:10.37,2014-01-05 06:57:00,
2014-01-05 02:02:00,44.2,39.7,30.19,ESE,119,0.0,0.0,84,0.00,CLR,,0.00,WeatherDisplay:10.37,2014-01-05 07:02:00,
2014-01-05 02:07:00,44.3,39.5,30.19,ESE,119,0.0,0.0,83,0.00,CLR,,0.00,WeatherDisplay:10.37,2014-01-05 07:07:00,
2014-01-05 02:12:00,44.3,39.5,30.19,ESE,119,0.0,0.0,83,0.00,CLR,,0.00,WeatherDisplay:10.37,2014-01-05 07:12:00,
2014-01-05 02:17:00,44.3,39.5,30.19,ESE,119,0.0,0.0,83,0.00,CLR,,0.00,WeatherDisplay:10.37,2014-01-05 07:17:00,
2014-01-05 02:22:00,44.3,39.8,30.19,ESE,119,0.0,0.0,84,0.00,CLR,,0.00,WeatherDisplay:10.37,2014-01-05 07:22:00,
2014-01-05 02:27:00,44.4,39.9,30.19,ESE,119,0.0,0.0,84,0.00,CLR,,0.00,WeatherDisplay:10.37,2014-01-05 07:27:00,
2014-01-05 02:32:00,44.5,40.0,30.19,ESE,119,0.0,0.0,84,0.00,CLR,,0.00,WeatherDisplay:10.37,2014-01-05 07:32:00,
2014-01-05 02:37:00,44.5,40.0,30.19,ESE,119,0.0,0.0,84,0.00,CLR,,0.00,WeatherDisplay:10.37,2014-01-05 07:37:00,
2014-01-05 02:42:00,44.5,40.3,30.18,ESE,119,0.0,0.0,85,0.00,CLR,,0.00,WeatherDisplay:10.37,2014-01-05 07:42:00,
2014-01-05 02:47:00,44.6,40.4,30.17,ESE,119,0.0,0.0,85,0.00,CLR,,0.00,WeatherDisplay:10.37,2014-01-05 07:47:00,
2014-01-05 02:52:00,44.6,40.7,30.17,ESE,119,0.0,0.0,86,0.00,CLR,,0.00,WeatherDisplay:10.37,2014-01-05 07:52:00,
2014-01-05 02:57:00,44.6,40.7,30.17,ESE,115,0.0,0.0,86,0.00,CLR,,0.00,WeatherDisplay:10.37,2014-01-05 07:57:00,
2014-01-05 03:02:00,44.6,40.4,30.18,ESE,115,0.0,0.0,85,0.00,CLR,,0.00,WeatherDisplay:10.37,2014-01-05 08:02:00,
2014-01-05 03:07:00,44.6,40.7,30.18,ESE,115,0.0,0.0,86,0.00,CLR,,0.00,WeatherDisplay:10.37,2014-01-05 08:07:00,
2014-01-05 03:12:00,44.6,40.7,30.17,ESE,115,0.0,0.0,86,0.00,CLR,,0.00,WeatherDisplay:10.37,2014-01-05 08:12:00,
2014-01-05 03:17:00,44.5,40.6,30.18,ESE,115,0.0,0.0,86,0.00,CLR,,0.00,WeatherDisplay:10.37,2014-01-05 08:17:00,
2014-01-05 03:22:00,44.6,41.0,30.18,ESE,115,0.0,0.0,87,0.00,CLR,,0.00,WeatherDisplay:10.37,2014-01-05 08:22:00,
2014-01-05 03:27:00,44.6,41.0,30.17,ESE,115,0.0,0.0,87,0.00,CLR,,0.00,WeatherDisplay:10.37,2014-01-05 08:27:00,
2014-01-05 03:32:00,44.6,41.0,30.18,ESE,115,0.0,0.0,87,0.00,CLR,,0.00,WeatherDisplay:10.37,2014-01-05 08:32:00,
2014-01-05 03:37:00,44.6,41.3,30.18,ESE,115,0.0,0.0,88,0.00,CLR,,0.00,WeatherDisplay:10.37,2014-01-05 08:37:00,
2014-01-05 03:42:00,44.6,41.3,30.17,ESE,115,0.0,0.0,88,0.00,CLR,,0.00,WeatherDisplay:10.37,2014-01-05 08:42:00,
2014-01-05 03:47:00,44.6,41.3,30.17,ESE,115,0.0,0.0,88,0.00,CLR,,0.00,WeatherDisplay:10.37,2014-01-05 08:47:00,
2014-01-05 03:52:00,44.6,41.6,30.16,ESE,115,0.0,0.0,89,0.00,CLR,,0.00,WeatherDisplay:10.37,2014-01-05 08:52:00,
2014-01-05 03:57:00,44.6,41.8,30.16,ESE,115,0.0,0.0,90,0.00,CLR,,0.00,WeatherDisplay:10.37,2014-01-05 08:57:00,
2014-01-05 04:02:00,44.7,41.9,30.15,ESE,115,0.0,0.0,90,0.00,CLR,,0.00,WeatherDisplay:10.37,2014-01-05 09:02:00,
2014-01-05 04:07:00,44.7,41.9,30.16,ESE,115,0.0,0.0,90,0.00,CLR,,0.00,WeatherDisplay:10.37,2014-01-05 09:07:00,
2014-01-05 04:12:00,44.7,41.9,30.16,ESE,115,0.0,0.0,90,0.00,CLR,,0.00,WeatherDisplay:10.37,2014-01-05 09:12:00,
2014-01-05 04:17:00,44.7,41.9,30.15,ESE,115,0.0,0.0,90,0.00,CLR,,0.00,WeatherDisplay:10.37,2014-01-05 09:17:00,
2014-01-05 04:22:00,44.7,41.9,30.15,ESE,115,0.0,0.0,90,0.00,CLR,,0.00,WeatherDisplay:10.37,2014-01-05 09:22:00,
2014-01-05 04:27:00,44.7,41.9,30.16,ESE,115,0.0,0.0,90,0.00,CLR,,0.00,WeatherDisplay:10.37,2014-01-05 09:27:00,
2014-01-05 04:32:00,44.7,42.2,30.15,ESE,115,0.0,0.0,91,0.00,CLR,,0.00,WeatherDisplay:10.37,2014-01-05 09:32:00,
2014-01-05 04:37:00,44.8,42.0,30.15,ESE,115,0.0,0.0,90,0.00,CLR,,0.00,WeatherDisplay:10.37,2014-01-05 09:37:00,
2014-01-05 04:42:00,44.7,41.9,30.15,ESE,115,0.0,0.0,90,0.00,CLR,,0.00,WeatherDisplay:10.37,2014-01-05 09:42:00,
2014-01-05 04:47:00,44.8,42.3,30.14,ESE,115,0.0,0.0,91,0.00,CLR,,0.00,WeatherDisplay:10.37,2014-01-05 09:47:00,
2014-01-05 04:52:00,44.9,42.1,30.14,ESE,115,0.0,0.0,90,0.00,CLR,,0.00,WeatherDisplay:10.37,2014-01-05 09:52:00,
2014-01-05 04:57:00,44.9,42.4,30.14,ESE,115,0.0,0.0,91,0.00,CLR,,0.00,WeatherDisplay:10.37,2014-01-05 09:57:00,
2014-01-05 05:02:00,45.0,42.5,30.14,ESE,115,0.0,0.0,91,0.00,CLR,,0.00,WeatherDisplay:10.37,2014-01-05 10:02:00,
2014-01-05 05:07:00,45.0,42.5,30.14,ESE,115,0.0,0.0,91,0.00,CLR,,0.00,WeatherDisplay:10.37,2014-01-05 10:07:00,
2014-01-05 05:12:00,45.1,42.6,30.14,ESE,115,0.0,0.0,91,0.00,CLR,,0.00,WeatherDisplay:10.37,2014-01-05 10:12:00,
2014-01-05 05:17:00,45.2,42.7,30.14,ESE,115,0.0,0.0,91,0.00,CLR,,0.00,WeatherDisplay:10.37,2014-01-05 10:17:00,
2014-01-05 05:22:00,45.3,43.1,30.14,ESE,115,0.0,0.0,92,0.00,CLR,,0.00,WeatherDisplay:10.37,2014-01-05 10:22:00,
2014-01-05 05:27:00,45.4,43.2,30.14,ESE,115,0.0,0.0,92,0.00,CLR,,0.00,WeatherDisplay:10.37,2014-01-05 10:27:00,
2014-01-05 05:32:00,45.6,43.4,30.14,ESE,115,0.0,0.0,92,0.00,CLR,,0.00,WeatherDisplay:10.37,2014-01-05 10:32:00,
2014-01-05 05:37:00,45.6,43.4,30.14,ESE,115,0.0,0.0,92,0.00,CLR,,0.00,WeatherDisplay:10.37,2014-01-05 10:37:00,
2014-01-05 05:42:00,45.7,43.5,30.14,ESE,115,0.0,0.0,92,0.00,CLR,,0.00,WeatherDisplay:10.37,2014-01-05 10:42:00,
2014-01-05 05:47:00,45.9,43.7,30.13,ESE,115,0.0,0.0,92,0.00,CLR,,0.00,WeatherDisplay:10.37,2014-01-05 10:47:00,
2014-01-05 05:52:00,46.0,43.8,30.13,ESE,115,0.0,0.0,92,0.00,CLR,,0.00,WeatherDisplay:10.37,2014-01-05 10:52:00,
2014-01-05 05:57:00,46.2,44.0,30.12,ESE,115,0.0,0.0,92,0.00,CLR,,0.00,WeatherDisplay:10.37,2014-01-05 10:57:00,
2014-01-05 06:02:00,46.3,44.4,30.12,ESE,115,0.0,0.0,93,0.00,CLR,,0.00,WeatherDisplay:10.37,2014-01-05 11:02:00,
2014-01-05 06:07:00,46.5,44.6,30.12,ESE,115,0.0,0.0,93,0.00,CLR,,0.00,WeatherDisplay:10.37,2014-01-05 11:07:00,
2014-01-05 06:12:00,46.6,45.0,30.11,ESE,115,0.0,0.0,94,0.00,CLR,,0.00,WeatherDisplay:10.37,2014-01-05 11:12:00,
2014-01-05 06:17:00,46.8,44.9,30.12,ESE,115,0.0,0.0,93,0.00,CLR,,0.00,WeatherDisplay:10.37,2014-01-05 11:17:00,
2014-01-05 06:22:00,46.9,45.0,30.12,ESE,115,0.0,0.0,93,0.00,CLR,,0.00,WeatherDisplay:10.37,2014-01-05 11:22:00,
2014-01-05 06:27:00,47.0,45.1,30.12,ESE,115,0.0,0.0,93,0.00,CLR,,0.00,WeatherDisplay:10.37,2014-01-05 11:27:00,
2014-01-05 06:32:00,47.1,45.2,30.12,ESE,115,0.0,0.0,93,0.00,CLR,,0.00,WeatherDisplay:10.37,2014-01-05 11:32:00,
2014-01-05 06:37:00,47.2,45.3,30.12,ESE,115,0.0,0.0,93,0.00,CLR,,0.00,WeatherDisplay:10.37,2014-01-05 11:37:00,
2014-01-05 06:42:00,47.3,45.1,30.12,ESE,115,0.0,0.0,92,0.00,CLR,,0.00,WeatherDisplay:10.37,2014-01-05 11:42:00,
2014-01-05 06:47:00,47.4,45.2,30.12,ESE,115,0.0,0.0,92,0.00,CLR,,0.00,WeatherDisplay:10.37,2014-01-05 11:47:00,
2014-01-05 06:52:00,47.4,45.5,30.12,ESE,115,0.0,0.0,93,0.00,CLR,,0.00,WeatherDisplay:10.37,2014-01-05 11:52:00,
2014-01-05 06:57:00,47.5,45.3,30.12,ESE,115,0.0,0.0,92,0.00,CLR,,0.00,WeatherDisplay:10.37,2014-01-05 11:57:00,
2014-01-05 07:02:00,47.6,45.7,30.11,ESE,115,0.0,0.0,93,0.00,CLR,,0.00,WeatherDisplay:10.37,2014-01-05 12:02:00,
2014-01-05 07:07:00,47.6,45.7,30.12,ESE,115,0.0,0.0,93,0.00,CLR,,0.00,WeatherDisplay:10.37,2014-01-05 12:07:00,
2014-01-05 07:12:00,47.6,45.7,30.11,ESE,115,0.0,0.0,93,0.00,CLR,,0.00,WeatherDisplay:10.37,2014-01-05 12:12:00,
2014-01-05 07:17:00,47.7,45.8,30.12,ESE,115,0.0,0.0,93,0.00,CLR,,0.00,WeatherDisplay:10.37,2014-01-05 12:17:00,
2014-01-05 07:22:00,47.7,45.8,30.12,ESE,115,0.0,0.0,93,0.00,CLR,,0.00,WeatherDisplay:10.37,2014-01-05 12:22:00,
2014-01-05 07:27:00,47.8,45.9,30.11,ESE,115,0.0,0.0,93,0.00,CLR,,0.00,WeatherDisplay:10.37,2014-01-05 12:27:00,
2014-01-05 07:32:00,47.8,46.2,30.11,ESE,115,0.0,0.0,94,0.00,CLR,,0.00,WeatherDisplay:10.37,2014-01-05 12:32:00,
2014-01-05 07:37:00,47.9,46.3,30.12,ESE,115,0.0,0.0,94,0.00,CLR,,0.00,WeatherDisplay:10.37,2014-01-05 12:37:00,
2014-01-05 07:42:00,47.9,46.0,30.11,ESE,115,0.0,0.0,93,0.00,CLR,,0.00,WeatherDisplay:10.37,2014-01-05 12:42:00,
2014-01-05 07:47:00,48.0,46.1,30.12,ESE,115,0.0,0.0,93,0.00,CLR,,0.00,WeatherDisplay:10.37,2014-01-05 12:47:00,
2014-01-05 07:52:00,48.1,46.2,30.12,ESE,115,0.0,0.0,93,0.00,CLR,,0.00,WeatherDisplay:10.37,2014-01-05 12:52:00,
2014-01-05 07:57:00,48.1,46.2,30.12,ESE,115,0.0,0.0,93,0.00,CLR,,0.00,WeatherDisplay:10.37,2014-01-05 12:57:00,
2014-01-05 08:02:00,48.2,46.3,30.12,ESE,115,0.0,0.0,93,0.00,CLR,,0.00,WeatherDisplay:10.37,2014-01-05 13:02:00,
2014-01-05 08:07:00,48.2,46.3,30.12,ESE,115,0.0,0.0,93,0.00,CLR,,0.00,WeatherDisplay:10.37,2014-01-05 13:07:00,
2014-01-05 08:12:00,48.3,46.7,30.12,ESE,115,0.0,0.0,94,0.00,CLR,,0.00,WeatherDisplay:10.37,2014-01-05 13:12:00,
2014-01-05 08:17:00,48.3,46.7,30.12,ESE,115,0.0,0.0,94,0.00,CLR,,0.00,WeatherDisplay:10.37,2014-01-05 13:17:00,
2014-01-05 08:22:00,48.5,46.9,30.12,ESE,115,0.0,0.0,94,0.00,CLR,,0.00,WeatherDisplay:10.37,2014-01-05 13:22:00,
2014-01-05 08:27:00,48.7,47.6,30.11,ESE,115,0.0,0.0,96,0.00,CLR,,0.00,WeatherDisplay:10.37,2014-01-05 13:27:00,
2014-01-05 08:32:00,48.9,47.8,30.12,ESE,115,0.0,0.0,96,0.00,CLR,,0.00,WeatherDisplay:10.37,2014-01-05 13:32:00,
2014-01-05 08:37:00,49.0,47.9,30.12,ESE,115,0.0,0.0,96,0.00,CLR,,0.00,WeatherDisplay:10.37,2014-01-05 13:37:00,
2014-01-05 08:42:00,49.1,48.0,30.12,ESE,115,0.0,0.0,96,0.00,CLR,,0.00,WeatherDisplay:10.37,2014-01-05 13:42:00,
2014-01-05 08:47:00,49.3,48.2,30.11,ESE,115,0.0,0.0,96,0.00,CLR,,0.00,WeatherDisplay:10.37,2014-01-05 13:47:00,
2014-01-05 08:52:00,49.4,48.3,30.11,ESE,115,0.0,0.0,96,0.00,CLR,,0.00,WeatherDisplay:10.37,2014-01-05 13:52:00,
2014-01-05 08:57:00,49.7,48.6,30.11,ESE,115,0.0,0.0,96,0.00,CLR,,0.00,WeatherDisplay:10.37,2014-01-05 13:57:00,
2014-01-05 09:02:00,49.9,48.8,30.11,ESE,115,0.0,0.0,96,0.00,CLR,,0.00,WeatherDisplay:10.37,2014-01-05 14:02:00,
2014-01-05 09:07:00,50.1,49.0,30.11,ESE,115,0.0,0.0,96,0.00,CLR,,0.00,WeatherDisplay:10.37,2014-01-05 14:07:00,
2014-01-05 09:12:00,50.4,49.3,30.11,ESE,115,0.0,0.0,96,0.00,CLR,,0.00,WeatherDisplay:10.37,2014-01-05 14:12:00,
2014-01-05 09:17:00,50.8,50.0,30.11,ESE,115,0.0,0.0,97,0.00,CLR,,0.00,WeatherDisplay:10.37,2014-01-05 14:17:00,
2014-01-05 09:22:00,51.2,50.4,30.11,ESE,115,0.0,0.0,97,0.00,CLR,,0.00,WeatherDisplay:10.37,2014-01-05 14:22:00,
2014-01-05 09:27:00,52.7,51.9,30.10,ESE,115,0.0,0.0,97,0.00,CLR,,0.00,WeatherDisplay:10.37,2014-01-05 14:27:00,
2014-01-05 09:32:00,54.0,53.2,30.10,ESE,115,0.0,0.0,97,0.00,CLR,,0.00,WeatherDisplay:10.37,2014-01-05 14:32:00,
2014-01-05 09:37:00,55.0,54.2,30.10,ESE,115,0.0,0.0,97,0.00,CLR,,0.00,WeatherDisplay:10.37,2014-01-05 14:37:00,
2014-01-05 09:42:00,55.5,54.7,30.11,ESE,115,0.0,0.0,97,0.00,CLR,,0.00,WeatherDisplay:10.37,2014-01-05 14:42:00,
2014-01-05 09:47:00,55.8,55.0,30.11,ESE,115,0.0,0.0,97,0.00,CLR,,0.00,WeatherDisplay:10.37,2014-01-05 14:47:00,
2014-01-05 09:52:00,56.0,55.2,30.10,ESE,115,0.0,0.0,97,0.00,CLR,,0.00,WeatherDisplay:10.37,2014-01-05 14:52:00,
2014-01-05 09:57:00,56.1,55.3,30.10,ESE,115,0.0,0.0,97,0.00,CLR,,0.00,WeatherDisplay:10.37,2014-01-05 14:57:00,
2014-01-05 10:02:00,56.3,55.5,30.10,ESE,115,0.0,0.0,97,0.00,CLR,,0.00,WeatherDisplay:10.37,2014-01-05 15:02:00,
2014-01-05 10:07:00,56.4,55.8,30.10,ESE,115,0.0,0.0,98,0.00,CLR,,0.00,WeatherDisplay:10.37,2014-01-05 15:07:00,
2014-01-05 10:12:00,56.6,56.0,30.10,ESE,115,0.0,0.0,98,0.00,CLR,,0.00,WeatherDisplay:10.37,2014-01-05 15:12:00,
2014-01-05 10:17:00,56.9,56.1,30.09,ESE,115,0.0,0.0,97,0.00,CLR,,0.00,WeatherDisplay:10.37,2014-01-05 15:17:00,
2014-01-05 10:22:00,57.1,56.5,30.09,ESE,115,0.0,0.0,98,0.00,CLR,,0.00,WeatherDisplay:10.37,2014-01-05 15:22:00,
2014-01-05 10:27:00,57.3,56.7,30.09,ESE,115,0.0,0.0,98,0.00,CLR,,0.00,WeatherDisplay:10.37,2014-01-05 15:27:00,
2014-01-05 10:32:00,57.6,57.0,30.08,ESE,115,0.0,0.0,98,0.00,CLR,,0.00,WeatherDisplay:10.37,2014-01-05 15:32:00,
2014-01-05 10:37:00,58.0,57.4,30.08,ESE,107,0.0,0.0,98,0.00,CLR,,0.00,WeatherDisplay:10.37,2014-01-05 15:37:00,
2014-01-05 10:42:00,58.5,57.9,30.08,ESE,118,0.0,0.0,98,0.00,CLR,,0.00,WeatherDisplay:10.37,2014-01-05 15:42:00,
2014-01-05 10:47:00,59.2,58.6,30.08,ESE,118,0.0,0.0,98,0.00,CLR,,0.00,WeatherDisplay:10.37,2014-01-05 15:47:00,
2014-01-05 10:52:00,59.8,59.2,30.08,ESE,119,0.0,0.0,98,0.00,CLR,,0.00,WeatherDisplay:10.37,2014-01-05 15:52:00,
2014-01-05 10:57:00,60.4,59.8,30.08,ESE,119,0.0,0.0,98,0.00,CLR,,0.00,WeatherDisplay:10.37,2014-01-05 15:57:00,
2014-01-05 11:02:00,60.9,60.3,30.08,NW,325,0.0,0.0,98,0.00,CLR,,0.00,WeatherDisplay:10.37,2014-01-05 16:02:00,
2014-01-05 11:07:00,61.6,61.0,30.08,NW,325,0.0,0.0,98,0.00,CLR,,0.00,WeatherDisplay:10.37,2014-01-05 16:07:00,
2014-01-05 11:12:00,62.5,61.9,30.07,NW,325,0.0,0.0,98,0.00,CLR,,0.00,WeatherDisplay:10.37,2014-01-05 16:12:00,
2014-01-05 11:17:00,63.3,62.7,30.07,NNW,327,0.0,0.0,98,0.00,CLR,,0.00,WeatherDisplay:10.37,2014-01-05 16:17:00,
2014-01-05 11:22:00,64.5,63.3,30.06,NW,325,0.0,0.0,96,0.00,CLR,,0.00,WeatherDisplay:10.37,2014-01-05 16:22:00,
2014-01-05 11:27:00,65.4,63.3,30.06,NW,325,0.0,0.0,93,0.00,CLR,,0.00,WeatherDisplay:10.37,2014-01-05 16:27:00,
2014-01-05 11:32:00,66.1,63.7,30.06,NW,325,0.0,0.0,92,0.00,CLR,,0.00,WeatherDisplay:10.37,2014-01-05 16:32:00,
2014-01-05 11:37:00,66.9,63.6,30.06,NW,325,0.0,0.0,89,0.00,CLR,,0.00,WeatherDisplay:10.37,2014-01-05 16:37:00,
2014-01-05 11:42:00,67.4,63.7,30.05,NW,325,0.0,0.0,88,0.00,CLR,,0.00,WeatherDisplay:10.37,2014-01-05 16:42:00,
2014-01-05 11:47:00,67.7,63.7,30.05,NNW,334,0.0,0.0,87,0.00,CLR,,0.00,WeatherDisplay:10.37,2014-01-05 16:47:00,
2014-01-05 11:52:00,67.7,63.7,30.05,NW,325,0.0,0.0,87,0.00,CLR,,0.00,WeatherDisplay:10.37,2014-01-05 16:52:00,
2014-01-05 11:57:00,67.7,63.7,30.04,NW,325,0.0,0.0,87,0.00,CLR,,0.00,WeatherDisplay:10.37,2014-01-05 16:57:00,
2014-01-05 12:02:00,67.7,63.4,30.04,NW,325,0.0,0.0,86,0.00,CLR,,0.00,WeatherDisplay:10.37,2014-01-05 17:02:00,
2014-01-05 12:07:00,67.7,63.4,30.03,NW,325,0.0,0.0,86,0.00,CLR,,0.00,WeatherDisplay:10.37,2014-01-05 17:07:00,
2014-01-05 12:12:00,67.6,62.9,30.03,NW,325,0.0,0.0,85,0.00,CLR,,0.00,WeatherDisplay:10.37,2014-01-05 17:12:00,
2014-01-05 12:17:00,67.4,63.1,30.03,NW,325,0.0,0.0,86,0.00,CLR,,0.00,WeatherDisplay:10.37,2014-01-05 17:17:00,
2014-01-05 12:22:00,67.2,63.8,30.03,North,351,0.0,0.0,89,0.00,CLR,,0.00,WeatherDisplay:10.37,2014-01-05 17:22:00,
2014-01-05 12:27:00,66.7,63.7,30.02,NNW,331,0.0,0.0,90,0.00,CLR,,0.00,WeatherDisplay:10.37,2014-01-05 17:27:00,
2014-01-05 12:32:00,66.1,64.0,30.02,NNW,329,0.0,0.0,93,0.00,CLR,,0.00,WeatherDisplay:10.37,2014-01-05 17:32:00,
2014-01-05 12:37:00,65.7,63.6,30.01,NW,325,0.0,0.0,93,0.00,CLR,,0.00,WeatherDisplay:10.37,2014-01-05 17:37:00,
2014-01-05 12:42:00,65.6,64.1,30.01,NW,325,0.0,0.0,95,0.00,CLR,,0.00,WeatherDisplay:10.37,2014-01-05 17:42:00,
2014-01-05 12:47:00,65.6,64.1,30.01,NW,325,0.0,0.0,95,0.00,CLR,,0.00,WeatherDisplay:10.37,2014-01-05 17:47:00,
2014-01-05 12:52:00,65.7,64.2,30.00,NW,325,0.0,0.0,95,0.00,CLR,,0.00,WeatherDisplay:10.37,2014-01-05 17:52:00,
2014-01-05 12:57:00,65.9,64.4,30.00,NW,325,0.0,0.0,95,0.00,CLR,,0.00,WeatherDisplay:10.37,2014-01-05 17:57:00,
2014-01-05 13:02:00,66.1,64.6,30.00,NW,325,0.0,0.0,95,0.00,CLR,,0.00,WeatherDisplay:10.37,2014-01-05 18:02:00,
2014-01-05 13:07:00,66.1,64.3,30.00,NW,325,0.0,0.0,94,0.00,CLR,,0.00,WeatherDisplay:10.37,2014-01-05 18:07:00,
2014-01-05 13:12:00,66.2,64.4,29.99,NW,311,0.0,0.0,94,0.00,CLR,,0.00,WeatherDisplay:10.37,2014-01-05 18:12:00,
2014-01-05 13:17:00,66.1,64.3,29.98,West,276,0.0,0.0,94,0.00,CLR,,0.00,WeatherDisplay:10.37,2014-01-05 18:17:00,
2014-01-05 13:22:00,66.1,64.3,29.99,West,270,0.0,0.0,94,0.00,CLR,,0.00,WeatherDisplay:10.37,2014-01-05 18:22:00,
2014-01-05 13:28:00,66.0,64.2,29.99,WNW,284,0.0,0.0,94,0.00,CLR,,0.00,WeatherDisplay:10.37,2014-01-05 18:28:00,
2014-01-05 13:33:00,65.8,64.0,29.98,West,281,0.0,0.0,94,0.00,CLR,,0.00,WeatherDisplay:10.37,2014-01-05 18:33:00,
2014-01-05 13:38:00,65.7,64.2,29.98,WNW,282,0.0,0.0,95,0.00,CLR,,0.00,WeatherDisplay:10.37,2014-01-05 18:38:00,
2014-01-05 13:43:00,65.8,64.3,29.98,West,271,0.0,0.0,95,0.00,CLR,,0.00,WeatherDisplay:10.37,2014-01-05 18:43:00,
2014-01-05 13:48:00,65.9,64.4,29.98,West,281,0.0,0.0,95,0.00,CLR,,0.00,WeatherDisplay:10.37,2014-01-05 18:48:00,
2014-01-05 13:53:00,66.1,64.6,29.98,West,269,0.0,0.0,95,0.00,CLR,,0.00,WeatherDisplay:10.37,2014-01-05 18:53:00,
2014-01-05 13:58:00,66.3,64.8,29.98,WNW,285,0.0,0.0,95,0.00,CLR,,0.00,WeatherDisplay:10.37,2014-01-05 18:58:00,
2014-01-05 14:03:00,66.4,64.6,29.98,West,279,0.0,0.0,94,0.00,CLR,,0.00,WeatherDisplay:10.37,2014-01-05 19:03:00,
2014-01-05 14:08:00,66.5,64.7,29.98,West,279,0.0,0.0,94,0.00,CLR,,0.00,WeatherDisplay:10.37,2014-01-05 19:08:00,
2014-01-05 14:13:00,66.5,64.7,29.98,West,275,0.0,0.0,94,0.00,CLR,,0.00,WeatherDisplay:10.37,2014-01-05 19:13:00,
2014-01-05 14:18:00,66.6,64.8,29.99,West,272,0.0,0.0,94,0.00,CLR,,0.00,WeatherDisplay:10.37,2014-01-05 19:18:00,
2014-01-05 14:23:00,66.7,64.9,29.98,West,272,0.0,0.0,94,0.00,CLR,,0.00,WeatherDisplay:10.37,2014-01-05 19:23:00,
2014-01-05 14:28:00,66.8,65.0,29.98,WSW,247,0.0,0.0,94,0.00,CLR,,0.00,WeatherDisplay:10.37,2014-01-05 19:28:00,
2014-01-05 14:33:00,66.8,64.7,29.98,WSW,246,0.0,0.0,93,0.00,CLR,,0.00,WeatherDisplay:10.37,2014-01-05 19:33:00,
2014-01-05 14:38:00,66.9,64.8,29.98,WSW,251,0.0,0.0,93,0.00,CLR,,0.00,WeatherDisplay:10.37,2014-01-05 19:38:00,
2014-01-05 14:43:00,66.9,64.5,29.98,WNW,287,0.0,0.0,92,0.00,CLR,,0.00,WeatherDisplay:10.37,2014-01-05 19:43:00,
2014-01-05 14:48:00,66.9,64.5,29.98,West,262,0.0,0.0,92,0.00,CLR,,0.00,WeatherDisplay:10.37,2014-01-05 19:48:00,
2014-01-05 14:53:00,66.9,64.5,29.98,West,262,0.0,0.0,92,0.00,CLR,,0.00,WeatherDisplay:10.37,2014-01-05 19:53:00,
2014-01-05 14:58:00,66.8,64.4,29.98,WSW,258,0.0,0.0,92,0.00,CLR,,0.00,WeatherDisplay:10.37,2014-01-05 19:58:00,
2014-01-05 15:03:00,66.8,64.4,29.98,WSW,255,0.0,0.0,92,0.00,CLR,,0.00,WeatherDisplay:10.37,2014-01-05 20:03:00,
2014-01-05 15:08:00,66.8,64.4,29.98,WSW,255,0.0,0.0,92,0.00,CLR,,0.00,WeatherDisplay:10.37,2014-01-05 20:08:00,
2014-01-05 15:13:00,66.8,64.1,29.98,West,262,0.0,0.0,91,0.00,CLR,,0.00,WeatherDisplay:10.37,2014-01-05 20:13:00,
2014-01-05 15:18:00,66.8,64.1,29.97,West,262,0.0,0.0,91,0.00,CLR,,0.00,WeatherDisplay:10.37,2014-01-05 20:18:00,
2014-01-05 15:23:00,66.8,64.1,29.97,West,262,0.0,0.0,91,0.00,CLR,,0.00,WeatherDisplay:10.37,2014-01-05 20:23:00,
2014-01-05 15:28:00,66.7,64.0,29.97,West,262,0.0,0.0,91,0.00,CLR,,0.00,WeatherDisplay:10.37,2014-01-05 20:28:00,
2014-01-05 15:33:00,66.7,64.0,29.97,West,262,0.0,0.0,91,0.00,CLR,,0.00,WeatherDisplay:10.37,2014-01-05 20:33:00,
2014-01-05 15:38:00,66.6,63.9,29.97,West,277,0.0,0.0,91,0.00,CLR,,0.00,WeatherDisplay:10.37,2014-01-05 20:38:00,
2014-01-05 15:43:00,66.6,63.9,29.97,WNW,285,0.0,0.0,91,0.00,CLR,,0.00,WeatherDisplay:10.37,2014-01-05 20:43:00,
2014-01-05 15:48:00,66.4,63.7,29.97,WNW,283,0.0,0.0,91,0.00,CLR,,0.00,WeatherDisplay:10.37,2014-01-05 20:48:00,
2014-01-05 15:53:00,66.3,63.6,29.97,WNW,283,0.0,0.0,91,0.00,CLR,,0.00,WeatherDisplay:10.37,2014-01-05 20:53:00,
2014-01-05 15:58:00,66.2,63.5,29.97,WNW,283,0.0,0.0,91,0.00,CLR,,0.00,WeatherDisplay:10.37,2014-01-05 20:58:00,
2014-01-05 16:03:00,66.1,63.7,29.97,WNW,283,0.0,0.0,92,0.00,CLR,,0.00,WeatherDisplay:10.37,2014-01-05 21:03:00,
2014-01-05 16:08:00,65.9,63.5,29.97,WNW,283,0.0,0.0,92,0.00,CLR,,0.00,WeatherDisplay:10.37,2014-01-05 21:08:00,
2014-01-05 16:13:00,65.8,63.4,29.97,WNW,283,0.0,0.0,92,0.00,CLR,,0.00,WeatherDisplay:10.37,2014-01-05 21:13:00,
2014-01-05 16:18:00,65.7,63.3,29.96,WNW,283,0.0,0.0,92,0.00,CLR,,0.00,WeatherDisplay:10.37,2014-01-05 21:18:00,
2014-01-05 16:23:00,65.6,63.2,29.96,WNW,283,0.0,0.0,92,0.00,CLR,,0.00,WeatherDisplay:10.37,2014-01-05 21:23:00,
2014-01-05 16:28:00,65.4,63.0,29.96,WNW,283,0.0,0.0,92,0.00,CLR,,0.00,WeatherDisplay:10.37,2014-01-05 21:28:00,
2014-01-05 16:33:00,65.3,62.9,29.96,WNW,283,0.0,0.0,92,0.00,CLR,,0.00,WeatherDisplay:10.37,2014-01-05 21:33:00,
2014-01-05 16:38:00,65.1,63.0,29.97,WNW,283,0.0,0.0,93,0.00,CLR,,0.00,WeatherDisplay:10.37,2014-01-05 21:38:00,
2014-01-05 16:43:00,65.0,62.6,29.97,WNW,283,0.0,0.0,92,0.00,CLR,,0.00,WeatherDisplay:10.37,2014-01-05 21:43:00,
2014-01-05 16:48:00,64.8,62.7,29.97,WNW,283,0.0,0.0,93,0.00,CLR,,0.00,WeatherDisplay:10.37,2014-01-05 21:48:00,
2014-01-05 16:53:00,64.7,62.6,29.97,WNW,283,0.0,0.0,93,0.00,CLR,,0.00,WeatherDisplay:10.37,2014-01-05 21:53:00,
2014-01-05 16:58:00,64.6,62.8,29.97,WNW,283,0.0,0.0,94,0.00,CLR,,0.00,WeatherDisplay:10.37,2014-01-05 21:58:00,
2014-01-05 17:03:00,64.5,62.7,29.96,WNW,283,0.0,0.0,94,0.00,CLR,,0.00,WeatherDisplay:10.37,2014-01-05 22:03:00,
2014-01-05 17:08:00,64.4,62.6,29.96,WNW,283,0.0,0.0,94,0.00,CLR,,0.00,WeatherDisplay:10.37,2014-01-05 22:08:00,
2014-01-05 17:13:00,64.4,62.6,29.96,WNW,283,0.0,0.0,94,0.00,CLR,,0.00,WeatherDisplay:10.37,2014-01-05 22:13:00,
2014-01-05 17:18:00,64.3,62.5,29.96,WNW,283,0.0,0.0,94,0.00,CLR,,0.00,WeatherDisplay:10.37,2014-01-05 22:18:00,
2014-01-05 17:23:00,64.2,62.4,29.95,WNW,283,0.0,0.0,94,0.00,CLR,,0.00,WeatherDisplay:10.37,2014-01-05 22:23:00,
2014-01-05 17:28:00,64.1,62.3,29.95,WNW,283,0.0,0.0,94,0.00,CLR,,0.00,WeatherDisplay:10.37,2014-01-05 22:28:00,
2014-01-05 17:33:00,64.1,62.3,29.94,WNW,283,0.0,0.0,94,0.00,CLR,,0.00,WeatherDisplay:10.37,2014-01-05 22:33:00,
2014-01-05 17:38:00,64.0,62.2,29.94,WNW,283,0.0,0.0,94,0.00,CLR,,0.00,WeatherDisplay:10.37,2014-01-05 22:38:00,
2014-01-05 17:43:00,63.9,62.1,29.94,WNW,283,0.0,0.0,94,0.00,CLR,,0.00,WeatherDisplay:10.37,2014-01-05 22:43:00,
2014-01-05 17:48:00,63.8,62.0,29.94,WNW,283,0.0,0.0,94,0.00,CLR,,0.00,WeatherDisplay:10.37,2014-01-05 22:48:00,
2014-01-05 17:53:00,63.7,61.9,29.95,WNW,283,0.0,0.0,94,0.00,CLR,,0.00,WeatherDisplay:10.37,2014-01-05 22:53:00,
2014-01-05 17:58:00,63.6,62.1,29.95,WNW,283,0.0,0.0,95,0.00,CLR,,0.00,WeatherDisplay:10.37,2014-01-05 22:58:00,
2014-01-05 18:03:00,63.5,62.0,29.95,WNW,283,0.0,0.0,95,0.00,CLR,,0.00,WeatherDisplay:10.37,2014-01-05 23:03:00,
2014-01-05 18:08:00,63.4,61.9,29.95,WNW,283,0.0,0.0,95,0.00,CLR,,0.00,WeatherDisplay:10.37,2014-01-05 23:08:00,
2014-01-05 18:13:00,63.5,62.0,29.94,WNW,283,0.0,0.0,95,0.00,CLR,,0.00,WeatherDisplay:10.37,2014-01-05 23:13:00,
2014-01-05 18:18:00,63.4,61.9,29.94,WNW,283,0.0,0.0,95,0.00,CLR,,0.00,WeatherDisplay:10.37,2014-01-05 23:18:00,
2014-01-05 18:23:00,63.4,61.9,29.94,WNW,283,0.0,0.0,95,0.00,CLR,,0.00,WeatherDisplay:10.37,2014-01-05 23:23:00,
2014-01-05 18:28:00,63.4,61.9,29.94,WNW,283,0.0,0.0,95,0.00,CLR,,0.00,WeatherDisplay:10.37,2014-01-05 23:28:00,
2014-01-05 18:33:00,63.3,61.8,29.94,WNW,283,0.0,0.0,95,0.00,CLR,,0.00,WeatherDisplay:10.37,2014-01-05 23:33:00,
2014-01-05 18:38:00,63.3,61.8,29.95,WNW,283,0.0,0.0,95,0.00,CLR,,0.00,WeatherDisplay:10.37,2014-01-05 23:38:00,
2014-01-05 18:43:00,63.3,61.8,29.95,West,265,0.0,0.0,95,0.00,CLR,,0.00,WeatherDisplay:10.37,2014-01-05 23:43:00,
2014-01-05 18:48:00,63.2,61.7,29.95,West,264,0.0,0.0,95,0.00,CLR,,0.00,WeatherDisplay:10.37,2014-01-05 23:48:00,
2014-01-05 18:53:00,63.2,61.7,29.95,West,265,0.0,0.0,95,0.00,CLR,,0.00,WeatherDisplay:10.37,2014-01-05 23:53:00,
2014-01-05 18:58:00,63.2,61.7,29.95,West,265,0.0,0.0,95,0.00,CLR,,0.00,WeatherDisplay:10.37,2014-01-05 23:58:00,
2014-01-05 19:03:00,63.2,62.0,29.95,West,265,0.0,0.0,96,0.00,CLR,,0.00,WeatherDisplay:10.37,2014-01-06 00:03:00,
2014-01-05 19:08:00,63.2,62.0,29.95,West,265,0.0,0.0,96,0.00,CLR,,0.00,WeatherDisplay:10.37,2014-01-06 00:08:00,
2014-01-05 19:13:00,63.1,61.9,29.95,West,265,0.0,0.0,96,0.00,CLR,,0.00,WeatherDisplay:10.37,2014-01-06 00:13:00,
2014-01-05 19:18:00,63.1,61.9,29.95,West,265,0.0,0.0,96,0.00,CLR,,0.00,WeatherDisplay:10.37,2014-01-06 00:18:00,
2014-01-05 19:23:00,63.1,61.9,29.95,West,265,0.0,0.0,96,0.00,CLR,,0.00,WeatherDisplay:10.37,2014-01-06 00:23:00,
2014-01-05 19:28:00,63.0,61.8,29.94,West,265,0.0,0.0,96,0.00,CLR,,0.00,WeatherDisplay:10.37,2014-01-06 00:28:00,
2014-01-05 19:33:00,63.1,61.9,29.94,West,265,0.0,0.0,96,0.00,CLR,,0.00,WeatherDisplay:10.37,2014-01-06 00:33:00,
2014-01-05 19:38:00,63.0,61.8,29.94,West,265,0.0,0.0,96,0.00,CLR,,0.00,WeatherDisplay:10.37,2014-01-06 00:38:00,
2014-01-05 19:43:00,63.0,61.8,29.94,West,265,0.0,0.0,96,0.00,CLR,,0.00,WeatherDisplay:10.37,2014-01-06 00:43:00,
2014-01-05 19:48:00,62.9,61.4,29.94,West,261,0.0,0.0,95,0.00,CLR,,0.00,WeatherDisplay:10.37,2014-01-06 00:48:00,
2014-01-05 19:53:00,62.9,61.4,29.94,West,261,0.0,0.0,95,0.00,CLR,,0.00,WeatherDisplay:10.37,2014-01-06 00:53:00,
2014-01-05 19:58:00,62.9,61.4,29.94,West,261,0.0,0.0,95,0.00,CLR,,0.00,WeatherDisplay:10.37,2014-01-06 00:58:00,
2014-01-05 20:03:00,62.8,61.3,29.94,West,261,0.0,0.0,95,0.00,CLR,,0.00,WeatherDisplay:10.37,2014-01-06 01:03:00,
2014-01-05 20:08:00,62.8,61.3,29.94,West,261,0.0,0.0,95,0.00,CLR,,0.00,WeatherDisplay:10.37,2014-01-06 01:08:00,
2014-01-05 20:13:00,62.7,61.2,29.94,West,261,0.0,0.0,95,0.00,CLR,,0.00,WeatherDisplay:10.37,2014-01-06 01:13:00,
2014-01-05 20:18:00,62.7,61.2,29.94,West,261,0.0,0.0,95,0.00,CLR,,0.00,WeatherDisplay:10.37,2014-01-06 01:18:00,
2014-01-05 20:23:00,62.6,61.1,29.94,West,261,0.0,0.0,95,0.00,CLR,,0.00,WeatherDisplay:10.37,2014-01-06 01:23:00,
2014-01-05 20:28:00,62.5,60.7,29.94,West,261,0.0,0.0,94,0.00,CLR,,0.00,WeatherDisplay:10.37,2014-01-06 01:28:00,
2014-01-05 20:33:00,62.4,60.7,29.94,West,261,0.0,0.0,94,0.00,CLR,,0.00,WeatherDisplay:10.37,2014-01-06 01:33:00,
2014-01-05 20:38:00,62.3,60.6,29.94,West,261,0.0,0.0,94,0.00,CLR,,0.00,WeatherDisplay:10.37,2014-01-06 01:38:00,
2014-01-05 20:43:00,62.3,60.6,29.94,West,261,0.0,0.0,94,0.00,CLR,,0.00,WeatherDisplay:10.37,2014-01-06 01:43:00,
2014-01-05 20:48:00,62.2,60.5,29.93,West,261,0.0,0.0,94,0.00,CLR,,0.00,WeatherDisplay:10.37,2014-01-06 01:48:00,
2014-01-05 20:53:00,62.1,60.4,29.92,West,261,0.0,0.0,94,0.00,CLR,,0.00,WeatherDisplay:10.37,2014-01-06 01:53:00,
2014-01-05 20:58:00,62.0,60.3,29.92,West,261,0.0,0.0,94,0.00,CLR,,0.00,WeatherDisplay:10.37,2014-01-06 01:58:00,
2014-01-05 21:03:00,61.8,60.1,29.92,West,261,0.0,0.0,94,0.00,CLR,,0.00,WeatherDisplay:10.37,2014-01-06 02:03:00,
2014-01-05 21:08:00,61.7,60.0,29.92,West,261,0.0,0.0,94,0.00,CLR,,0.00,WeatherDisplay:10.37,2014-01-06 02:08:00,
2014-01-05 21:13:00,61.6,60.2,29.92,West,261,0.0,0.0,95,0.00,CLR,,0.00,WeatherDisplay:10.37,2014-01-06 02:13:00,
2014-01-05 21:18:00,61.6,60.2,29.92,West,261,0.0,0.0,95,0.00,CLR,,0.00,WeatherDisplay:10.37,2014-01-06 02:18:00,
2014-01-05 21:23:00,61.4,60.0,29.92,West,261,0.0,0.0,95,0.00,CLR,,0.00,WeatherDisplay:10.37,2014-01-06 02:23:00,
2014-01-05 21:28:00,61.4,60.0,29.92,West,261,0.0,0.0,95,0.00,CLR,,0.00,WeatherDisplay:10.37,2014-01-06 02:28:00,
2014-01-05 21:33:00,61.3,59.9,29.92,West,261,0.0,0.0,95,0.00,CLR,,0.00,WeatherDisplay:10.37,2014-01-06 02:33:00,
2014-01-05 21:38:00,61.2,59.8,29.92,West,261,0.0,0.0,95,0.00,CLR,,0.00,WeatherDisplay:10.37,2014-01-06 02:38:00,
2014-01-05 21:43:00,61.2,59.8,29.92,West,261,0.0,0.0,95,0.00,CLR,,0.00,WeatherDisplay:10.37,2014-01-06 02:43:00,
2014-01-05 21:48:00,61.1,59.7,29.92,West,261,0.0,0.0,95,0.00,CLR,,0.00,WeatherDisplay:10.37,2014-01-06 02:48:00,
2014-01-05 21:53:00,61.0,59.6,29.92,West,261,0.0,0.0,95,0.00,CLR,,0.00,WeatherDisplay:10.37,2014-01-06 02:53:00,
2014-01-05 21:58:00,60.9,59.5,29.92,West,261,0.0,0.0,95,0.00,CLR,,0.00,WeatherDisplay:10.37,2014-01-06 02:58:00,
2014-01-05 22:03:00,60.9,59.5,29.92,West,261,0.0,0.0,95,0.00,CLR,,0.00,WeatherDisplay:10.37,2014-01-06 03:03:00,
2014-01-05 22:08:00,60.8,59.4,29.91,West,261,0.0,0.0,95,0.00,CLR,,0.00,WeatherDisplay:10.37,2014-01-06 03:08:00,
2014-01-05 22:13:00,60.8,59.4,29.91,West,261,0.0,0.0,95,0.00,CLR,,0.00,WeatherDisplay:10.37,2014-01-06 03:13:00,
2014-01-05 22:18:00,60.8,59.4,29.91,West,261,0.0,0.0,95,0.00,CLR,,0.00,WeatherDisplay:10.37,2014-01-06 03:18:00,
2014-01-05 22:23:00,60.7,59.3,29.91,West,261,0.0,0.0,95,0.00,CLR,,0.00,WeatherDisplay:10.37,2014-01-06 03:23:00,
2014-01-05 22:28:00,60.7,59.3,29.90,West,261,0.0,0.0,95,0.00,CLR,,0.00,WeatherDisplay:10.37,2014-01-06 03:28:00,
2014-01-05 22:33:00,60.6,59.2,29.90,West,261,0.0,0.0,95,0.00,CLR,,0.00,WeatherDisplay:10.37,2014-01-06 03:33:00,
2014-01-05 22:38:00,60.6,59.2,29.90,West,261,0.0,0.0,95,0.00,CLR,,0.00,WeatherDisplay:10.37,2014-01-06 03:38:00,
2014-01-05 22:43:00,60.5,59.1,29.89,West,261,0.0,0.0,95,0.00,CLR,,0.00,WeatherDisplay:10.37,2014-01-06 03:43:00,
2014-01-05 22:48:00,60.5,59.1,29.89,West,261,0.0,0.0,95,0.00,CLR,,0.00,WeatherDisplay:10.37,2014-01-06 03:48:00,
2014-01-05 22:53:00,60.4,59.0,29.88,West,261,0.0,0.0,95,0.00,CLR,,0.00,WeatherDisplay:10.37,2014-01-06 03:53:00,
2014-01-05 22:58:00,60.4,59.3,29.88,West,261,0.0,0.0,96,0.00,CLR,,0.00,WeatherDisplay:10.37,2014-01-06 03:58:00,
2014-01-05 23:03:00,60.3,58.9,29.88,West,261,0.0,0.0,95,0.00,CLR,,0.00,WeatherDisplay:10.37,2014-01-06 04:03:00,
2014-01-05 23:08:00,60.3,59.2,29.87,West,261,0.0,0.0,96,0.00,CLR,,0.00,WeatherDisplay:10.37,2014-01-06 04:08:00,
2014-01-05 23:13:00,60.2,59.1,29.86,West,261,0.0,0.0,96,0.00,CLR,,0.00,WeatherDisplay:10.37,2014-01-06 04:13:00,
2014-01-05 23:18:00,60.1,59.0,29.86,West,261,0.0,0.0,96,0.00,CLR,,0.00,WeatherDisplay:10.37,2014-01-06 04:18:00,
2014-01-05 23:23:00,60.1,59.0,29.86,West,262,0.0,0.0,96,0.00,CLR,,0.00,WeatherDisplay:10.37,2014-01-06 04:23:00,
2014-01-05 23:28:00,60.0,58.9,29.86,West,262,0.0,0.0,96,0.00,CLR,,0.00,WeatherDisplay:10.37,2014-01-06 04:28:00,
2014-01-05 23:33:00,60.0,58.9,29.85,West,262,0.0,0.0,96,0.00,CLR,,0.00,WeatherDisplay:10.37,2014-01-06 04:33:00,
2014-01-05 23:38:00,60.0,58.9,29.85,West,262,0.0,0.0,96,0.00,CLR,,0.00,WeatherDisplay:10.37,2014-01-06 04:38:00,
2014-01-05 23:43:00,60.0,58.9,29.85,West,262,0.0,0.0,96,0.00,CLR,,0.00,WeatherDisplay:10.37,2014-01-06 04:43:00,
2014-01-05 23:48:00,60.0,59.1,29.85,West,269,0.0,0.0,97,0.00,CLR,,0.00,WeatherDisplay:10.37,2014-01-06 04:48:00,
2014-01-05 23:53:00,59.9,59.0,29.85,West,269,0.0,0.0,97,0.00,CLR,,0.00,WeatherDisplay:10.37,2014-01-06 04:53:00,
2014-01-05 23:58:00,59.9,59.0,29.84,West,269,0.0,0.0,97,0.00,CLR,,0.00,WeatherDisplay:10.37,2014-01-06 04:58:00,